• In United Kingdom
  • List of Countries
  • For 7 days
  • Water Temperature
  • Satellite Maps
  • Weather Map
  • Weather Widgets
  • user-avatar
    Login

    Hourly Weather La Massana

    Today, 22 July, Saturday

    Time Temperature Precipitation Wind Pressure Humidity
    00:00 +11°C° 0 mm 1 mps 611 mmHg 90%
    01:00 +11°C° 0 mm 1 mps 611 mmHg 90%
    02:00 +10°C° 0 mm 1 mps 611 mmHg 91%
    03:00 +10°C° 0 mm 1 mps 611 mmHg 91%
    04:00 +11°C° 0 mm 1 mps 611 mmHg 90%
    05:00 +11°C° 0 mm 1 mps 612 mmHg 88%
    06:00 +12°C° 0 mm 1 mps 612 mmHg 86%
    07:00 +14°C° 0 mm 2 mps 613 mmHg 74%
    08:00 +16°C° 0 mm 2 mps 614 mmHg 62%
    09:00 +19°C° 0 mm 3 mps 615 mmHg 51%
    10:00 +20°C° 0 mm 3 mps 615 mmHg 47%
    11:00 +21°C° 0 mm 4 mps 616 mmHg 43%
    12:00 +22°C° 0 mm 4 mps 616 mmHg 39%
    13:00 +21°C° 0.1 mm 4 mps 616 mmHg 40%
    14:00 +21°C° 0.1 mm 4 mps 616 mmHg 42%
    15:00 +21°C° 0.1 mm 4 mps 615 mmHg 44%
    16:00 +20°C° 0.2 mm 4 mps 615 mmHg 49%
    17:00 +19°C° 0.2 mm 3 mps 615 mmHg 55%
    18:00 +18°C° 0.2 mm 2 mps 615 mmHg 60%
    19:00 +16°C° 0.1 mm 2 mps 615 mmHg 69%
    20:00 +14°C° 0.1 mm 2 mps 614 mmHg 78%
    21:00 +12°C° 0.1 mm 1 mps 614 mmHg 87%
    22:00 +12°C° 0 mm 1 mps 614 mmHg 88%
    23:00 +12°C° 0 mm 1 mps 614 mmHg 89%

    Tomorrow, 23 July, Sunday

    Time Temperature Precipitation Wind Pressure Humidity
    00:00 +12°C° 0 mm 1 mps 614 mmHg 90%
    01:00 +11°C° 0 mm 1 mps 614 mmHg 91%
    02:00 +11°C° 0 mm 1 mps 614 mmHg 91%
    03:00 +11°C° 0 mm 1 mps 614 mmHg 92%
    04:00 +11°C° 0 mm 1 mps 614 mmHg 90%
    05:00 +12°C° 0 mm 1 mps 615 mmHg 89%
    06:00 +12°C° 0 mm 1 mps 615 mmHg 87%
    07:00 +13°C° 0 mm 1 mps 616 mmHg 81%
    08:00 +15°C° 0 mm 2 mps 617 mmHg 75%
    09:00 +16°C° 0 mm 2 mps 617 mmHg 68%
    10:00 +17°C° 0 mm 3 mps 618 mmHg 62%
    11:00 +19°C° 0 mm 3 mps 618 mmHg 56%
    12:00 +20°C° 0 mm 3 mps 618 mmHg 50%
    13:00 +20°C° 0 mm 3 mps 618 mmHg 50%
    14:00 +20°C° 0 mm 4 mps 618 mmHg 50%
    15:00 +20°C° 0 mm 4 mps 617 mmHg 49%
    16:00 +19°C° 0.5 mm 3 mps 617 mmHg 58%
    17:00 +17°C° 0.5 mm 2 mps 616 mmHg 66%
    18:00 +16°C° 0.5 mm 2 mps 616 mmHg 74%
    19:00 +14°C° 1.4 mm 1 mps 615 mmHg 81%
    20:00 +13°C° 1.4 mm 1 mps 615 mmHg 88%
    21:00 +12°C° 1.4 mm 1 mps 615 mmHg 94%
    22:00 +11°C° 0.2 mm 1 mps 615 mmHg 95%
    23:00 +11°C° 0.2 mm 1 mps 614 mmHg 95%

    Day after tomorrow, 24 July, Monday

    Time Temperature Precipitation Wind Pressure Humidity
    00:00 +11°C° 0.2 mm 1 mps 614 mmHg 96%
    01:00 +10°C° 0.1 mm 1 mps 614 mmHg 96%
    02:00 +10°C° 0.1 mm 1 mps 613 mmHg 96%
    03:00 +10°C° 0.1 mm 1 mps 613 mmHg 96%
    04:00 +10°C° 0 mm 1 mps 613 mmHg 94%
    05:00 +9°C° 0 mm 2 mps 613 mmHg 93%
    06:00 +9°C° 0 mm 2 mps 613 mmHg 91%
    07:00 +12°C° 0 mm 2 mps 614 mmHg 81%
    08:00 +12°C° 0 mm 3 mps 614 mmHg 71%
    09:00 +14°C° 0 mm 3 mps 615 mmHg 61%
    10:00 +16°C° 0 mm 3 mps 615 mmHg 56%
    11:00 +17°C° 0 mm 3 mps 616 mmHg 51%
    12:00 +18°C° 0 mm 4 mps 616 mmHg 45%
    13:00 +18°C° 0 mm 4 mps 616 mmHg 46%
    14:00 +18°C° 0 mm 4 mps 616 mmHg 46%
    15:00 +18°C° 0 mm 4 mps 615 mmHg 46%
    16:00 +17°C° 0 mm 4 mps 615 mmHg 51%
    17:00 +14°C° 0 mm 4 mps 614 mmHg 56%
    18:00 +13°C° 0 mm 4 mps 614 mmHg 61%
    19:00 +11°C° 0 mm 3 mps 613 mmHg 68%
    20:00 +10°C° 0 mm 3 mps 613 mmHg 75%
    21:00 +8°C° 0 mm 3 mps 613 mmHg 81%
    22:00 +7°C° 0 mm 3 mps 612 mmHg 80%
    23:00 +7°C° 0 mm 3 mps 612 mmHg 78%

    25 July, Tuesday

    Time Temperature Precipitation Wind Pressure Humidity
    00:00 +5°C° 0 mm 3 mps 612 mmHg 77%
    01:00 +5°C° 0 mm 3 mps 611 mmHg 76%
    02:00 +5°C° 0 mm 3 mps 611 mmHg 76%
    03:00 +4°C° 0 mm 3 mps 611 mmHg 76%
    04:00 +5°C° 0 mm 3 mps 611 mmHg 75%
    05:00 +5°C° 0 mm 3 mps 611 mmHg 74%
    06:00 +7°C° 0 mm 3 mps 612 mmHg 74%
    07:00 +9°C° 0 mm 3 mps 612 mmHg 66%
    08:00 +11°C° 0 mm 3 mps 613 mmHg 58%
    09:00 +13°C° 0 mm 3 mps 614 mmHg 51%
    10:00 +14°C° 0 mm 3 mps 614 mmHg 48%
    11:00 +16°C° 0 mm 3 mps 615 mmHg 44%
    12:00 +17°C° 0 mm 4 mps 615 mmHg 41%
    13:00 +18°C° 0 mm 4 mps 615 mmHg 41%
    14:00 +18°C° 0 mm 4 mps 615 mmHg 41%
    15:00 +18°C° 0 mm 4 mps 614 mmHg 41%
    16:00 +17°C° 0 mm 4 mps 614 mmHg 47%
    17:00 +15°C° 0 mm 4 mps 614 mmHg 53%
    18:00 +13°C° 0 mm 3 mps 613 mmHg 59%
    19:00 +11°C° 0.2 mm 3 mps 613 mmHg 67%
    20:00 +10°C° 0.2 mm 3 mps 612 mmHg 76%
    21:00 +8°C° 0.2 mm 2 mps 612 mmHg 85%
    22:00 +7°C° 0 mm 2 mps 612 mmHg 85%
    23:00 +7°C° 0 mm 2 mps 612 mmHg 86%

    26 July, Wednesday

    Time Temperature Precipitation Wind Pressure Humidity
    00:00 +7°C° 0 mm 2 mps 611 mmHg 86%
    01:00 +7°C° 0 mm 2 mps 611 mmHg 86%
    02:00 +7°C° 0 mm 2 mps 611 mmHg 87%
    03:00 +6°C° 0 mm 2 mps 611 mmHg 88%
    04:00 +7°C° 0 mm 2 mps 611 mmHg 86%
    05:00 +7°C° 0 mm 2 mps 611 mmHg 83%
    06:00 +7°C° 0 mm 2 mps 612 mmHg 81%
    07:00 +10°C° 0 mm 2 mps 613 mmHg 70%
    08:00 +13°C° 0 mm 2 mps 614 mmHg 59%
    09:00 +15°C° 0 mm 2 mps 615 mmHg 48%
    10:00 +17°C° 0 mm 2 mps 615 mmHg 45%
    11:00 +18°C° 0 mm 2 mps 616 mmHg 42%
    12:00 +19°C° 0 mm 2 mps 616 mmHg 39%
    13:00 +19°C° 0 mm 2 mps 616 mmHg 40%
    14:00 +19°C° 0 mm 2 mps 615 mmHg 41%
    15:00 +20°C° 0 mm 2 mps 615 mmHg 42%
    16:00 +19°C° 0 mm 2 mps 615 mmHg 48%
    17:00 +17°C° 0 mm 2 mps 614 mmHg 53%
    18:00 +16°C° 0 mm 1 mps 614 mmHg 59%
    19:00 +15°C° 0 mm 1 mps 614 mmHg 67%
    20:00 +13°C° 0 mm 1 mps 613 mmHg 75%
    21:00 +11°C° 0 mm 1 mps 613 mmHg 82%
    22:00 +11°C° 0 mm 1 mps 613 mmHg 83%
    23:00 +10°C° 0 mm 1 mps 613 mmHg 83%

    27 July, Thursday

    Time Temperature Precipitation Wind Pressure Humidity
    00:00 +10°C° 0 mm 1 mps 612 mmHg 84%
    01:00 +10°C° 0 mm 1 mps 612 mmHg 83%
    02:00 +10°C° 0 mm 1 mps 612 mmHg 83%
    03:00 +10°C° 0 mm 1 mps 612 mmHg 83%
    04:00 +11°C° 0 mm 1 mps 612 mmHg 80%
    05:00 +11°C° 0 mm 1 mps 613 mmHg 77%
    06:00 +12°C° 0 mm 1 mps 613 mmHg 75%
    07:00 +15°C° 0 mm 1 mps 614 mmHg 65%
    08:00 +18°C° 0 mm 1 mps 616 mmHg 55%
    09:00 +21°C° 0 mm 1 mps 617 mmHg 45%
    10:00 +22°C° 0 mm 1 mps 617 mmHg 42%
    11:00 +24°C° 0 mm 1 mps 617 mmHg 39%
    12:00 +25°C° 0 mm 2 mps 618 mmHg 36%
    13:00 +25°C° 0 mm 2 mps 618 mmHg 36%
    14:00 +25°C° 0 mm 2 mps 617 mmHg 37%
    15:00 +25°C° 0 mm 2 mps 617 mmHg 38%
    16:00 +24°C° 0 mm 2 mps 617 mmHg 43%
    17:00 +23°C° 0 mm 1 mps 617 mmHg 48%
    18:00 +22°C° 0 mm 1 mps 616 mmHg 53%
    19:00 +20°C° 0 mm 1 mps 616 mmHg 59%
    20:00 +18°C° 0 mm 1 mps 615 mmHg 66%
    21:00 +15°C° 0 mm 1 mps 615 mmHg 72%
    22:00 +15°C° 0 mm 1 mps 615 mmHg 73%
    23:00 +14°C° 0 mm 1 mps 615 mmHg 75%
    Show more